Change the Weather History Date:

Monday, January 19, 2015

  Actual Average Record
Temperature  
Mean Temperature 63 °F 66 °F  
Max Temperature 75 °F 75 °F 86 °F (1987)
Min Temperature 51 °F 57 °F 29 °F (1977)
Degree Days  
Heating Degree Days 2 3  
Month to date heating degree days 3 57  
Since 1 July heating degree days 45 128  
Cooling Degree Days 0 3  
Month to date cooling degree days 136 64  
Year to date cooling degree days 136 64  
Growing Degree Days 14 (Base 50)    
Moisture  
Dew Point 54 °F    
Average Humidity 75    
Maximum Humidity 100    
Minimum Humidity 49    
Precipitation  
Precipitation 0.00 in 0.10 in 2.86 in (1908)
Month to date precipitation 0.98 2.00  
Year to date precipitation 0.98 2.00  
Snow  
Snow 0.00 in - - ()
Month to date snowfall 0.0  
Since 1 July snowfall 0.0  
Snow Depth 0.00 in    
Sea Level Pressure  
Sea Level Pressure 30.12 in    
Wind  
Wind Speed 7 mph (NNW)    
Max Wind Speed 16 mph    
Max Gust Speed 20 mph    
Visibility 10 miles    
Events      
T = Trace of Precipitation, MM = Missing Value Source: NWS Daily Summary

Daily Weather History Graph

Daily Weather History Graph

Search for Another Location

Airport or City:

Trip Planner

Search our weather history database for the weather conditions in past years. The results will help you decide how hot, cold, wet, or windy it might be!

Date:

Astronomy

Jan. 19, 2015 Rise Set
Actual Time 7:09 AM EST 5:52 PM EST
Civil Twilight 6:45 AM EST 6:17 PM EST
Nautical Twilight 6:16 AM EST 6:45 PM EST
Astronomical Twilight 5:48 AM EST 7:13 PM EST
Moon 6:02 AM EST (1/19) 5:15 PM EST (1/19)
Length of Visible Light 11h 32m
Length of Day
10h 42m
Waning Crescent, 1% of the Moon is Illuminated
Jan 19
Waning Crescent
Jan 20
New
Jan 26
First Quarter
Feb 3
Full
Feb 11
Last Quarter

Hourly Weather History & Observations

Time (EST) Temp. Dew Point Humidity Pressure Visibility Wind Dir Wind Speed Gust Speed Precip Events Conditions
12:53 AM 57.9 °F 52.0 °F 81% 30.12 in 10.0 mi NW 3.5 mph - N/A   Clear
1:53 AM 55.0 °F 51.1 °F 86% 30.13 in 10.0 mi NW 6.9 mph - N/A   Partly Cloudy
2:53 AM 57.9 °F 54.0 °F 87% 30.13 in 10.0 mi NW 9.2 mph - N/A   Partly Cloudy
3:53 AM 55.0 °F 52.0 °F 89% 30.13 in 10.0 mi NW 6.9 mph - N/A   Partly Cloudy
4:53 AM 55.9 °F 53.1 °F 90% 30.12 in 10.0 mi NNW 8.1 mph - N/A   Partly Cloudy
5:53 AM 53.1 °F 51.1 °F 93% 30.13 in 10.0 mi NW 4.6 mph - N/A   Scattered Clouds
6:53 AM 52.0 °F 51.1 °F 97% 30.13 in 10.0 mi NW 5.8 mph - N/A   Partly Cloudy
7:53 AM 55.0 °F 53.1 °F 93% 30.15 in 10.0 mi NW 4.6 mph - N/A   Partly Cloudy
8:53 AM 61.0 °F 53.1 °F 75% 30.17 in 10.0 mi NW 6.9 mph - N/A   Scattered Clouds
9:53 AM 66.0 °F 51.1 °F 59% 30.18 in 10.0 mi North 10.4 mph - N/A   Mostly Cloudy
10:53 AM 69.1 °F 53.1 °F 57% 30.18 in 10.0 mi NNW 10.4 mph - N/A   Scattered Clouds
11:53 AM 72.0 °F 54.0 °F 53% 30.16 in 10.0 mi North 11.5 mph - N/A   Mostly Cloudy
12:53 PM 73.0 °F 55.9 °F 55% 30.13 in 10.0 mi NNE 12.7 mph - N/A   Mostly Cloudy
1:53 PM 73.9 °F 54.0 °F 50% 30.12 in 10.0 mi NNE 13.8 mph - N/A   Mostly Cloudy
2:53 PM 73.9 °F 55.0 °F 52% 30.10 in 10.0 mi NE 11.5 mph - N/A   Mostly Cloudy
3:53 PM 73.9 °F 55.0 °F 52% 30.09 in 10.0 mi NNE 10.4 mph - N/A   Mostly Cloudy
4:53 PM 72.0 °F 55.9 °F 57% 30.09 in 10.0 mi NNE 8.1 mph - N/A   Mostly Cloudy
5:53 PM 70.0 °F 57.0 °F 63% 30.09 in 10.0 mi North 4.6 mph - N/A   Mostly Cloudy
6:53 PM 68.0 °F 57.0 °F 68% 30.11 in 10.0 mi NNE 3.5 mph - N/A   Scattered Clouds
7:53 PM 64.0 °F 55.9 °F 75% 30.11 in 10.0 mi NW 3.5 mph - N/A   Scattered Clouds
8:53 PM 62.1 °F 55.0 °F 78% 30.11 in 10.0 mi NW 5.8 mph - N/A   Scattered Clouds
9:53 PM 61.0 °F 55.9 °F 83% 30.11 in 10.0 mi Calm Calm - N/A   Partly Cloudy
10:53 PM 60.1 °F 55.9 °F 86% 30.11 in 10.0 mi NW 3.5 mph - N/A   Scattered Clouds
11:53 PM 60.1 °F 55.9 °F 86% 30.09 in 10.0 mi WNW 3.5 mph - N/A   Scattered Clouds